Location: Ca�n Batista
(41.4099°N, 1.7752°E)
Time: 13:44:17
(UTC+00:00)

SL-4 R/B - Pass Details

Date: 03 March 2021
Orbit: 428 x 663 km, 51.6° (Epoch: 21 April)

Event Time Altitude Azimuth Distance (km) Brightness Sun altitude
Rises 19:50:04 0° 309° (NW) 2,451 6.4 -23.9°
Reaches altitude 10° 19:52:25 10° 321° (NW) 1,554 5.0 -24.4°
Enters shadow 19:54:07 22° 343° (NNW) 1,018 3.7 -24.7°
